Wind_Speed
20 24 27 29 30 28 25 25 21 15 13 14 14 14 14 14 12 9 7 6 5 5 4 3 3 3 4 4 4 5 5 5 4 4 4 3 3 3 4 4 4 4 4 3 3 3 2 2 2 1 2 2 2 2 2 3 3 4 4 5 6 6 6 7 6 5 5 7 8 7 8 9 9 9 9 9 9 9 10 11 12 13 14 15 16
21 25 27 28 28 25 23 23 21 16 15 15 13 14 14 13 11 10 9 8 8 7 6 6 6 6 7 6 6 6 6 6 5 5 4 5 4 4 4 4 5 5 5 5 5 5 4 3 3 3 3 2 1 1 1 2 2 3 4 5 6 7 7 8 9 8 7 7 8 9 11 11 12 12 12 12 13 12 12 12 13 13 13 13 14
21 24 25 24 25 24 20 19 18 17 18 16 14 15 14 13 13 12 12 11 10 9 9 9 10 10 10 9 9 9 8 8 7 7 6 5 6 5 5 5 5 5 4 4 5 5 5 5 5 5 5 5 3 2 2 2 3 4 5 5 7 8 10 11 11 12 12 11 11 13 14 13 14 15 15 15 16 16 16 16 16 15 15 15 15
21 22 23 23 25 24 20 18 19 20 21 18 17 17 16 15 15 14 14 14 12 12 12 13 15 15 13 13 13 12 11 11 11 10 8 7 7 7 7 8 7 6 5 4 5 5 5 5 6 6 7 7 5 4 3 3 3 4 5 6 7 9 11 12 13 13 14 15 14 15 16 16 17 17 17 17 17 17 18 18 18 18 17 17 17
21 21 21 21 24 24 19 18 21 23 21 20 19 19 17 17 16 16 17 17 16 17 17 19 20 21 19 17 17 16 15 15 14 13 12 11 10 10 9 9 10 9 9 8 7 7 6 6 6 6 7 7 6 5 4 3 3 4 6 7 9 11 13 14 14 15 15 16 16 16 16 17 17 18 20 20 19 19 19 20 21 21 20 20 19
18 19 18 17 19 21 18 19 23 22 20 19 20 20 19 18 18 20 21 21 21 21 21 22 22 23 23 22 22 22 19 18 18 17 16 15 15 14 14 13 13 13 13 12 11 10 9 8 8 7 6 6 6 6 5 5 5 6 7 8 10 12 15 17 18 18 17 17 17 17 18 19 19 20 21 23 24 24 23 23 23 23 23 22 21
12 13 15 15 17 18 18 21 22 21 19 19 19 20 20 21 22 22 23 24 24 23 23 23 22 22 23 23 25 24 22 20 21 20 19 19 19 18 18 18 17 17 16 16 15 14 13 12 11 10 8 6 6 7 7 7 8 8 8 8 10 12 15 18 20 21 20 19 19 19 20 21 22 23 23 24 25 26 26 27 25 24 24 24 23
7 9 11 13 14 16 18 19 19 18 18 20 21 21 22 23 23 23 24 25 24 24 24 23 22 23 23 24 24 22 21 21 22 22 22 22 22 21 20 20 20 20 20 19 18 17 16 15 15 14 12 10 9 9 9 10 11 10 9 8 9 11 14 17 20 22 21 21 21 22 22 23 24 25 25 26 27 27 28 29 28 27 26 26 26
6 7 9 10 12 14 15 17 17 17 18 19 20 21 21 22 22 23 24 23 23 23 23 22 22 24 24 24 23 21 22 23 24 24 25 25 25 25 24 23 22 21 21 21 20 20 19 18 18 18 17 15 13 12 13 14 14 12 11 10 10 11 13 16 19 22 24 23 23 24 25 25 27 28 28 29 29 29 30 31 31 31 30 28 27
5 5 6 7 7 7 8 10 11 11 10 10 10 11 12 13 14 15 15 14 14 15 15 15 16 18 18 17 17 18 19 20 21 21 21 21 22 23 23 22 21 20 20 20 21 22 21 21 20 20 20 19 17 16 16 17 17 16 14 13 12 13 15 18 20 24 26 26 25 26 27 27 28 30 31 31 31 31 32 33 33 33 34 33 30
7 8 8 7 6 7 8 9 10 9 8 7 7 6 6 7 7 7 6 6 7 7 8 8 9 10 10 10 9 9 10 12 13 14 15 17 19 20 21 21 20 19 19 20 21 20 21 22 22 22 23 22 20 20 19 19 19 18 17 16 15 15 17 20 24 26 28 27 26 27 29 29 29 30 31 31 32 32 33 33 34 34 35 36 34
8 9 9 8 6 7 8 8 8 7 7 7 6 6 6 6 6 5 5 5 5 5 5 6 7 8 9 10 8 7 7 8 9 10 10 13 16 17 18 19 19 19 20 20 20 20 21 21 22 23 24 24 23 22 21 21 21 20 19 19 19 19 19 21 25 29 29 27 27 28 29 30 30 30 31 32 33 33 33 33 34 35 35 35 36
9 9 8 7 5 4 5 5 5 4 4 5 4 4 4 4 5 5 5 5 6 6 7 7 8 9 9 10 10 10 9 8 9 9 8 9 11 12 12 13 15 16 16 16 17 19 20 21 21 22 24 24 23 22 23 22 22 21 21 21 20 20 20 22 26 29 29 28 28 29 29 30 31 31 32 34 34 35 35 34 34 35 35 35 36
12 10 9 8 7 6 5 5 4 4 5 5 5 5 5 5 5 6 6 7 8 9 9 10 11 11 11 11 11 11 11 10 9 9 9 9 10 10 10 10 11 12 13 13 14 14 15 17 18 20 23 25 24 24 24 24 23 22 22 21 20 21 22 24 26 28 28 28 29 29 30 31 32 33 34 35 36 36 36 36 35 35 35 35 36
11 11 10 9 8 8 7 6 6 6 6 6 6 7 7 8 8 9 9 10 11 11 12 12 13 13 13 13 12 12 11 10 9 9 10 11 11 11 11 11 10 10 10 10 10 10 10 12 14 18 23 25 25 25 25 24 23 23 22 21 21 22 25 26 27 27 27 28 29 30 30 32 33 34 35 35 35 35 35 35 34 34 35 35 35
10 10 10 10 10 9 8 7 7 7 7 6 6 6 7 8 9 9 10 10 10 10 10 11 11 11 12 12 12 12 11 10 10 10 11 11 12 13 13 11 9 9 9 9 8 7 8 10 14 19 23 24 24 24 24 24 23 22 21 21 22 24 26 27 28 28 29 30 30 31 32 33 34 34 34 34 34 33 33 34 32 32 34 36 36
9 9 9 9 10 9 8 8 8 8 7 7 6 7 8 9 10 11 10 10 10 10 10 11 12 13 13 13 12 11 11 10 10 10 11 12 13 13 12 11 10 10 9 8 6 6 7 10 15 20 22 23 23 23 23 22 22 21 22 23 24 25 26 27 28 29 30 30 31 32 33 33 33 33 33 32 31 31 32 32 31 31 33 35 36
8 7 7 8 8 9 9 9 9 9 9 8 8 9 9 10 11 12 12 12 12 13 14 14 16 16 16 16 14 13 11 10 10 10 10 11 12 12 12 11 11 10 8 7 6 7 9 11 15 19 21 22 22 22 22 22 22 23 24 24 25 25 26 28 29 30 30 31 31 31 31 31 31 31 31 30 29 28 29 30 30 30 31 32 33
8 7 7 8 9 9 9 9 10 10 10 10 10 11 11 12 13 14 15 15 15 15 16 16 16 16 16 17 17 15 13 12 11 10 10 10 10 10 10 10 9 8 8 7 7 9 11 13 14 16 18 20 21 22 22 22 22 23 24 24 25 27 28 29 30 30 30 30 30 30 30 29 30 30 29 28 28 27 27 28 28 28 29 30 31
12 12 12 12 11 11 10 9 9 9 10 11 12 13 14 14 15 15 16 16 16 16 16 16 17 18 19 19 18 16 14 13 12 12 11 10 9 9 9 9 9 8 8 8 9 11 13 14 15 16 17 18 20 21 21 21 22 23 24 25 26 28 28 28 28 29 29 29 30 30 30 30 30 29 28 27 26 26 26 26 25 26 28 29 29
14 14 14 14 13 13 12 11 11 10 10 11 12 13 14 14 14 14 14 15 15 16 16 18 19 20 20 17 15 14 14 13 13 13 12 10 9 9 10 11 10 10 10 11 12 12 13 14 15 16 17 18 20 21 21 23 24 24 25 26 26 27 27 27 27 28 29 29 30 31 31 31 30 28 27 27 26 26 26 25 25 25 26 27 28
14 14 14 14 14 14 14 13 13 13 13 13 13 14 14 14 15 16 16 17 18 19 19 20 19 18 15 12 11 12 12 12 13 13 12 11 10 10 10 11 11 11 12 13 14 14 15 16 16 17 18 20 20 21 22 23 24 24 24 25 25 26 26 27 28 28 29 30 31 31 31 30 30 28 27 27 26 26 27 27 26 26 26 27 28
15 15 15 15 16 16 16 15 15 15 15 15 15 16 17 18 18 18 19 20 20 20 19 18 16 14 13 12 12 12 13 13 13 12 12 12 11 10 11 13 14 14 14 14 15 16 17 18 18 18 19 19 20 21 22 22 23 23 23 23 24 25 26 27 28 28 29 30 30 31 30 29 29 28 28 27 27 27 27 28 28 28 28 28 29
17 17 17 17 17 17 17 16 17 17 16 16 17 18 19 20 19 19 20 21 20 19 17 16 14 14 15 15 14 14 14 14 14 13 13 12 12 13 15 17 17 16 16 16 16 16 17 17 17 17 17 18 19 20 20 20 20 21 21 22 23 24 25 26 27 28 28 29 29 30 29 28 28 28 28 28 28 28 28 28 29 29 30 30 30
19 20 20 19 18 17 17 17 17 18 18 18 19 19 19 19 19 19 19 19 19 18 17 17 17 17 18 17 16 16 16 15 14 14 14 14 15 17 19 19 16 15 15 15 15 16 16 15 15 16 16 17 17 17 17 17 18 19 20 21 22 23 24 25 26 27 28 28 28 29 29 28 28 29 29 29 30 30 30 30 29 28 28 29 30
20 21 21 21 20 19 18 17 17 17 17 17 17 18 18 19 19 19 19 20 20 21 21 21 20 19 19 19 18 17 17 17 16 16 16 16 17 18 18 16 14 13 14 14 14 15 14 14 14 14 14 14 13 13 14 15 16 17 18 20 21 22 23 24 25 26 26 27 28 29 29 30 30 30 31 32 32 31 31 31 30 28 27 28 29
19 21 21 21 21 20 20 19 18 17 17 18 18 18 19 19 20 20 21 21 23 23 23 22 21 19 19 20 20 19 19 18 18 17 17 17 17 16 15 13 12 13 14 14 13 13 12 11 11 10 10 11 11 12 13 14 15 16 17 19 20 21 22 23 23 24 26 27 28 29 30 31 32 32 32 32 32 30 29 29 30 28 27 27 29
18 19 20 20 21 21 20 20 20 20 21 21 21 21 20 20 21 20 20 20 21 22 22 22 21 20 21 20 20 20 20 19 18 17 17 16 15 14 14 13 12 13 13 13 12 11 9 8 8 8 9 10 10 11 12 13 14 15 16 17 19 20 21 22 23 24 25 27 29 30 31 31 31 31 31 30 29 28 27 27 27 27 27 27 28
17 18 18 19 19 19 20 20 20 21 22 23 22 22 21 21 22 21 20 20 20 21 22 22 22 22 21 20 20 20 20 19 18 18 17 15 12 12 12 11 11 12 12 11 9 8 7 7 7 8 9 9 10 11 11 12 13 14 16 17 18 19 21 22 24 25 26 27 29 30 30 30 29 29 28 28 28 27 26 25 26 26 26 26 27
20 20 20 20 20 20 20 20 20 21 22 22 22 22 22 22 22 21 21 21 22 23 24 24 24 22 20 20 20 19 17 17 17 18 18 15 13 12 11 11 11 10 9 8 6 6 5 6 7 7 8 8 9 10 11 12 14 15 17 18 20 21 22 23 24 26 26 27 27 27 28 28 28 27 27 28 28 27 26 26 26 26 26 26 27
24 23 22 21 21 21 20 20 20 20 20 20 21 22 23 23 23 23 23 23 24 25 26 25 24 21 20 20 19 17 16 16 16 17 18 16 14 13 13 11 10 9 7 6 5 4 4 4 5 6 7 8 9 10 12 14 15 17 19 20 21 22 23 23 24 25 25 25 25 26 26 27 27 27 27 27 28 27 27 26 25 25 26 26 27
23 22 22 22 22 20 20 19 19 20 21 22 22 23 24 24 25 26 26 27 27 27 26 25 22 20 20 19 17 16 16 16 15 16 18 16 14 13 12 11 9 7 6 5 3 2 3 3 4 5 6 8 10 12 13 15 16 18 20 21 22 22 22 22 23 23 23 24 24 25 25 25 25 26 26 26 26 26 26 25 25 25 26 26 26
21 20 20 20 19 19 19 19 20 22 22 23 24 24 25 26 27 28 29 29 28 26 24 22 21 21 20 18 16 15 15 15 16 17 16 15 14 13 12 10 9 7 5 4 2 2 3 4 5 6 7 9 11 12 14 15 17 19 20 21 21 21 21 21 21 21 21 22 23 24 25 25 24 24 24 24 24 25 25 26 26 25 26 26 26
19 18 18 18 17 18 19 19 20 21 22 23 24 25 26 27 28 28 27 27 25 22 20 19 20 19 18 17 16 15 14 16 17 17 15 15 15 14 11 10 8 6 4 3 2 3 4 5 6 6 8 10 12 13 14 16 17 19 20 20 21 21 21 21 21 20 21 21 23 24 24 23 23 22 22 23 23 24 25 26 25 25 25 25 25
17 16 16 16 16 16 17 19 20 21 22 23 24 25 25 25 24 22 21 18 15 14 16 18 17 15 14 14 14 14 16 17 17 16 16 15 14 12 10 8 6 5 3 2 3 4 5 6 6 7 9 11 12 13 14 16 17 19 20 21 21 20 21 21 20 20 21 22 23 23 22 21 21 20 21 22 23 24 25 25 25 24 24 24 24
15 14 14 14 14 16 17 18 19 19 20 21 21 21 21 19 17 16 14 12 11 13 16 17 16 14 14 14 15 16 17 17 16 17 17 15 13 11 9 7 5 4 3 3 4 6 6 7 7 8 10 12 12 13 14 15 17 18 19 19 19 20 20 21 21 21 22 22 23 23 22 21 20 20 21 22 23 23 24 24 24 24 23 23 23
13 12 13 13 14 15 15 15 15 15 16 16 16 15 14 13 13 13 12 11 13 16 18 20 20 20 19 17 16 16 17 18 18 17 16 14 12 11 9 6 4 3 3 4 5 6 7 7 8 9 11 12 13 13 13 15 17 18 18 18 18 18 18 20 20 21 22 23 24 24 23 22 21 21 22 23 24 23 23 23 23 23 23 22 22
12 12 13 13 13 11 10 10 10 10 10 10 10 10 11 11 11 11 10 11 14 18 21 22 21 20 20 19 18 18 19 18 17 16 14 13 12 10 7 5 3 4 5 6 6 7 8 8 8 9 11 12 12 13 14 15 16 17 18 19 18 16 16 18 19 20 21 23 24 24 24 23 21 21 23 24 24 24 23 22 22 22 23 22 21
14 14 13 11 10 8 7 6 5 5 6 8 9 9 9 10 11 12 13 16 19 20 21 20 19 19 20 19 19 18 18 17 16 16 15 14 12 9 6 5 5 6 6 7 8 8 8 9 9 9 10 11 12 13 14 15 16 16 18 19 18 16 16 18 20 21 22 23 24 25 24 23 22 21 22 23 23 23 23 22 22 22 22 22 21
16 15 12 9 7 6 5 4 5 7 10 12 13 13 14 16 18 19 21 22 22 21 20 19 18 18 17 17 17 17 16 17 17 17 15 13 10 8 7 7 7 8 8 9 8 8 9 8 8 9 10 10 11 12 13 15 15 16 17 18 19 19 18 19 21 23 24 25 25 25 25 24 22 22 22 22 22 22 22 22 22 21 21 20 19
15 13 10 8 6 6 5 6 8 12 14 15 16 17 19 20 21 21 21 21 20 18 17 17 16 16 16 16 15 15 16 17 18 17 15 13 11 9 8 9 9 9 10 9 8 8 8 8 9 9 9 9 10 12 12 13 14 16 18 20 21 21 21 21 22 24 26 26 26 26 26 24 23 22 22 22 21 21 20 21 21 20 19 18 17
12 11 10 8 8 8 7 8 12 16 17 16 16 17 17 16 17 17 17 16 16 16 16 16 16 16 16 15 15 15 15 15 15 14 13 12 11 10 10 10 10 10 10 9 8 8 8 8 8 8 8 9 10 10 11 12 14 17 19 21 22 23 23 22 23 25 26 27 27 27 27 25 24 23 22 21 20 20 20 20 19 18 17 16 16
12 12 11 11 11 11 9 8 9 12 13 14 14 15 14 13 14 16 16 17 17 16 15 15 15 14 14 13 13 13 12 11 11 10 10 10 10 10 10 11 11 10 9 8 7 7 8 8 8 8 8 9 9 9 10 12 14 17 20 22 23 24 24 23 24 25 27 28 28 28 28 27 25 24 22 21 20 20 20 19 18 17 17 17 16
16 15 13 14 15 13 10 8 8 9 11 12 13 15 15 14 14 16 17 17 15 13 12 11 10 10 10 11 13 13 12 11 10 10 10 10 10 11 11 12 11 10 9 8 7 7 7 7 8 8 8 9 9 8 9 11 14 17 20 22 24 25 24 24 25 26 27 28 29 29 28 27 26 25 23 22 20 19 19 18 17 17 17 16 14
17 14 14 16 14 11 8 8 9 10 11 12 13 14 15 14 14 13 14 14 13 11 10 9 8 7 8 10 11 12 12 12 12 12 11 11 11 12 12 12 11 10 9 7 7 7 8 8 8 8 8 8 8 8 8 11 13 16 19 21 24 26 26 25 25 25 26 27 29 29 28 27 26 26 24 22 20 18 18 17 17 16 16 15 12
14 13 13 13 11 9 7 7 7 8 9 11 12 11 11 11 11 10 10 11 11 9 9 8 7 7 8 8 10 11 12 12 13 13 13 12 12 11 11 10 10 9 8 7 7 8 8 8 8 8 8 8 8 7 8 10 13 15 17 20 23 25 26 26 25 24 24 25 27 28 28 28 27 26 25 23 20 18 16 16 15 15 14 13 11
12 12 12 12 10 8 6 5 7 8 9 9 9 9 7 7 7 8 8 8 8 8 8 8 8 8 8 9 10 11 12 12 13 13 13 12 10 9 9 10 10 9 8 8 8 8 8 8 8 9 9 8 7 7 8 11 13 15 17 19 21 23 25 26 25 23 23 24 26 27 28 28 27 26 25 24 21 18 15 14 14 13 13 12 10
11 11 12 12 11 7 5 6 9 11 10 8 7 6 5 5 6 7 7 7 8 9 9 9 9 9 9 10 10 11 11 11 12 11 10 10 9 9 9 10 10 9 9 8 8 8 7 7 7 8 7 6 6 7 9 11 13 14 16 18 19 22 24 25 24 23 23 24 24 25 26 27 26 25 25 23 21 18 15 14 13 11 11 11 10
12 12 12 12 9 6 5 7 9 9 7 5 5 5 6 8 8 8 8 9 9 9 9 8 8 8 8 8 8 8 8 8 8 8 8 8 8 8 9 9 9 9 8 8 7 6 6 6 6 6 5 5 6 8 10 11 13 14 16 17 19 20 22 23 23 23 23 24 24 24 25 26 25 24 24 23 20 17 14 13 12 11 10 10 9
12 12 11 9 6 4 3 4 5 5 4 4 4 5 7 8 9 9 9 9 8 8 7 7 7 6 7 7 7 7 7 6 6 7 7 7 7 8 8 9 9 9 8 7 6 5 5 5 5 5 4 5 6 8 10 11 13 14 16 17 18 19 21 22 23 23 24 24 23 24 25 25 24 23 23 21 19 16 14 11 10 10 10 10 9
10 10 9 6 4 3 3 3 3 4 3 3 4 5 6 8 8 8 8 7 7 7 7 7 7 8 8 9 8 8 7 6 5 6 6 7 7 7 8 8 8 8 7 5 5 4 4 4 4 4 5 5 7 8 10 11 13 15 16 17 18 18 19 21 22 23 24 24 23 23 25 25 23 21 22 21 19 16 14 11 9 9 9 9 9
Wind_Direction
220 214 211 213 215 216 216 212 204 200 204 209 214 211 207 206 205 206 213 223 237 242 247 252 251 255 254 251 252 253 254 255 257 257 256 256 256 262 268 264 260 258 245 230 218 207 194 186 194 192 155 137 112 82 64 57 51 39 29 26 27 26 20 11 11 20 21 6 357 348 338 330 323 317 307 302 301 301 300 295 291 288 285 283 280
215 213 213 213 216 220 221 214 206 202 202 206 214 216 212 210 209 210 216 229 242 252 267 274 269 271 272 272 275 276 274 272 270 277 287 288 283 280 284 285 279 272 261 252 246 242 241 242 244 255 257 253 269 351 17 8 2 0 357 355 356 358 359 355 349 342 339 343 342 337 333 326 321 318 313 308 305 304 303 302 300 296 292 289 285
210 210 212 211 214 221 222 212 207 205 203 206 217 220 217 219 220 220 222 226 232 243 257 260 259 264 267 266 267 272 281 283 279 281 288 295 298 299 301 301 300 297 284 269 264 264 266 266 265 264 264 270 284 301 312 321 324 324 326 333 340 343 344 343 340 334 329 330 333 330 328 327 324 320 317 315 312 309 306 305 304 301 298 295 290
203 203 209 209 209 214 213 204 203 203 203 211 221 220 220 226 229 233 235 233 235 247 254 248 246 251 258 265 267 269 277 280 277 278 281 284 289 294 300 301 299 301 302 290 282 286 292 291 287 282 274 271 272 280 293 305 313 316 322 331 335 337 338 336 334 332 327 326 328 329 327 327 326 322 317 314 312 310 308 306 304 301 299 298 294
203 206 215 216 209 209 209 202 201 202 206 216 220 217 219 226 230 236 239 237 240 252 257 251 246 243 245 254 261 260 266 271 270 271 275 276 276 277 280 284 285 286 287 285 281 283 290 295 300 302 299 290 274 264 271 285 303 318 328 336 338 337 335 331 327 326 325 324 324 325 325 323 321 320 317 314 312 310 309 307 306 303 300 298 297
204 210 219 219 209 208 210 204 203 206 215 224 224 219 220 225 230 232 234 239 244 251 255 253 250 246 243 250 258 256 257 263 265 265 266 268 270 269 268 269 272 273 274 276 276 276 279 278 278 287 301 308 294 273 266 270 289 309 319 325 329 328 327 326 324 320 317 318 320 321 321 319 318 317 316 317 316 314 312 310 309 306 302 298 294
198 208 216 217 211 210 210 207 208 212 219 225 227 225 225 229 233 231 234 241 246 250 256 258 256 251 248 256 265 262 257 259 261 261 261 261 263 265 266 265 266 266 267 269 269 268 270 269 269 270 274 283 288 280 269 267 277 288 296 304 313 319 323 326 327 324 317 314 315 317 318 318 318 316 316 316 316 315 314 311 308 305 302 299 296
203 212 217 219 221 218 213 213 216 221 227 232 234 236 237 239 237 232 235 244 250 252 255 258 259 255 253 260 266 262 258 257 259 261 263 261 261 264 267 266 265 264 263 264 266 265 264 263 264 266 266 267 272 272 262 257 262 268 273 285 301 314 322 325 328 329 324 318 315 316 317 318 317 316 315 314 313 313 315 315 313 309 305 304 304
214 222 225 233 238 232 223 223 228 235 242 243 241 242 242 241 238 235 239 250 257 257 255 256 258 257 256 259 260 258 259 261 263 267 268 266 266 270 273 272 270 267 262 261 264 265 263 261 261 263 266 268 269 269 263 259 261 266 271 281 295 311 319 321 323 326 325 321 317 315 316 317 317 317 316 316 316 316 316 316 315 313 310 307 306
170 184 202 217 225 216 208 208 210 217 226 229 232 238 238 235 234 234 239 248 254 256 258 258 256 255 257 259 259 258 261 263 265 267 268 267 268 270 272 271 269 266 263 261 262 263 263 262 261 262 264 266 265 263 262 262 266 270 273 281 294 306 313 316 320 323 322 319 318 317 316 317 318 317 317 316 316 316 315 314 313 313 312 309 306
148 147 157 163 163 164 167 173 177 179 184 190 198 208 211 210 211 217 232 248 255 265 275 272 265 263 263 263 262 261 261 266 273 274 271 270 269 267 266 265 262 260 259 259 261 262 262 262 260 259 259 260 259 257 256 259 264 268 271 278 290 300 306 312 317 320 319 316 316 316 316 316 316 315 314 313 313 313 313 313 312 312 311 311 309
164 166 169 169 170 172 177 183 186 190 199 205 206 205 205 205 207 217 235 248 256 264 272 275 273 270 266 260 257 261 271 284 295 298 292 279 274 274 272 268 265 262 260 260 261 261 261 261 260 257 254 253 253 252 254 257 260 264 268 274 284 294 301 309 313 314 314 312 312 312 312 313 314 313 312 311 311 311 311 310 311 310 310 310 309
187 190 190 189 192 191 195 201 204 210 218 221 225 226 223 221 221 226 235 242 250 257 262 266 270 271 270 266 261 262 270 282 296 307 312 300 289 289 286 279 273 269 267 267 265 264 262 261 261 257 249 244 243 246 250 253 257 262 266 271 282 292 300 307 309 308 307 307 308 310 311 311 312 312 311 311 310 310 310 309 309 309 308 308 307
197 197 197 201 208 211 214 213 213 222 231 236 246 254 257 259 260 260 261 264 268 272 275 277 276 276 275 273 270 268 268 273 286 300 311 314 310 305 301 295 287 279 276 272 269 269 267 262 260 254 244 238 237 240 244 248 254 261 266 273 285 295 299 301 302 302 302 303 305 308 309 309 310 310 310 310 310 310 310 309 308 308 307 306 305
189 188 191 195 200 206 211 213 218 230 239 247 257 264 268 271 273 274 275 276 278 280 280 281 280 279 278 277 276 274 271 272 281 294 303 309 311 311 310 306 296 285 278 273 270 270 266 260 252 244 238 237 237 240 244 249 256 263 268 277 290 297 298 298 299 300 301 303 304 306 306 307 307 308 308 308 308 308 308 307 308 308 307 305 304
183 186 191 192 193 199 206 215 225 233 239 246 254 261 269 276 279 281 280 281 284 286 286 287 288 290 290 287 282 278 275 275 280 288 296 301 305 309 311 308 299 287 277 271 268 266 263 254 243 234 233 236 239 243 249 255 260 265 273 284 292 296 297 298 299 300 301 302 303 304 304 305 305 305 306 306 306 306 305 305 307 308 306 304 304
181 184 191 193 195 199 207 219 228 230 233 241 250 258 270 282 290 292 291 290 292 294 295 299 303 305 306 304 299 290 281 278 280 286 291 294 298 302 305 305 302 296 288 281 276 271 261 248 239 235 235 239 243 248 254 261 267 274 281 288 291 294 296 296 297 297 298 299 301 301 302 302 303 303 303 303 303 303 303 303 305 305 303 303 304
191 195 200 206 208 207 209 215 222 227 234 242 249 258 268 277 283 286 287 288 290 292 294 297 300 302 303 304 305 303 296 291 289 288 290 292 293 296 298 301 303 303 299 291 281 270 257 247 243 243 244 247 252 258 264 269 275 280 283 288 292 295 295 294 293 294 295 296 297 297 298 298 299 299 299 299 300 300 300 301 303 302 300 300 301
217 225 230 236 236 231 228 228 230 236 243 249 257 264 268 271 274 277 280 282 285 288 291 295 297 299 302 303 302 301 300 301 300 296 294 293 291 290 293 296 297 296 293 283 269 260 255 252 254 256 260 264 265 267 270 274 279 284 288 291 293 293 292 291 292 292 293 294 295 296 297 298 298 299 299 299 299 300 299 300 300 298 297 297 298
241 239 239 242 245 244 244 244 245 249 255 261 267 269 269 272 274 277 281 285 288 292 295 297 300 304 306 305 301 297 296 298 300 299 298 293 285 283 289 291 284 278 278 275 267 260 256 256 260 264 270 274 274 274 276 281 287 290 290 289 289 289 290 292 293 294 295 296 298 299 300 301 302 303 303 303 303 302 300 298 297 295 294 294 295
247 247 244 243 245 246 247 250 252 258 267 274 273 270 270 273 276 280 285 287 290 293 295 297 300 302 304 304 299 294 294 296 296 296 294 288 275 272 281 287 283 275 273 273 269 264 259 257 259 263 268 273 276 279 283 287 289 288 287 287 289 291 292 293 294 296 298 300 301 302 302 304 306 306 307 307 306 304 301 298 294 292 291 291 292
247 252 252 250 250 249 249 249 251 261 275 278 270 265 267 273 278 284 287 289 291 293 294 296 297 297 299 302 299 294 292 291 290 289 287 283 275 268 270 277 278 275 271 268 265 263 263 264 266 269 273 275 276 278 281 283 284 285 287 289 290 291 293 295 297 299 300 300 301 303 305 307 309 309 309 309 308 305 302 300 297 294 290 288 288
248 251 252 252 251 249 250 251 257 266 273 270 263 263 270 277 282 285 288 290 293 295 295 295 294 292 296 300 298 294 290 285 283 282 278 276 272 271 277 283 282 275 270 268 267 265 265 267 269 271 273 273 274 275 277 280 282 285 286 287 289 292 294 297 299 299 300 301 303 305 307 309 310 310 310 309 307 305 304 303 301 297 294 292 291
247 249 250 250 247 247 251 255 261 265 265 262 261 266 271 274 277 282 286 289 292 291 291 291 290 291 295 296 292 290 287 282 277 272 270 271 272 279 291 294 286 273 268 269 268 266 264 263 265 268 268 269 270 273 276 279 281 284 287 290 293 296 297 298 299 300 301 303 304 305 307 308 309 308 308 307 306 305 305 304 301 298 296 296 295
249 247 245 244 244 246 250 254 258 261 261 262 264 266 267 269 274 278 281 283 283 281 281 282 283 286 290 292 290 286 282 279 273 267 265 269 276 286 293 292 281 269 268 268 263 260 258 257 261 264 264 266 269 272 275 279 283 287 291 294 296 297 298 299 301 302 304 305 305 305 306 307 307 307 307 306 305 305 306 304 300 298 297 296 294
253 248 244 242 244 248 251 253 256 258 260 261 262 262 264 267 269 270 270 270 272 274 276 279 280 281 285 288 286 280 276 273 267 263 264 271 282 291 291 284 272 266 264 261 256 254 254 253 257 261 262 265 269 272 277 282 287 291 294 297 299 301 302 303 304 305 306 306 305 306 307 307 307 307 307 306 305 305 305 302 300 300 299 297 294
242 243 243 245 249 253 255 257 258 259 260 261 261 262 263 264 264 264 265 266 267 270 274 276 275 277 282 284 280 274 271 265 255 254 263 273 283 289 282 269 262 261 259 258 256 253 251 252 254 257 259 263 268 274 281 287 292 297 301 304 307 308 308 307 307 307 306 306 305 306 307 307 307 307 306 304 303 303 303 302 303 305 305 304 301
236 239 242 244 248 252 256 260 263 266 268 268 268 266 266 268 269 270 269 267 267 268 270 269 270 275 279 278 273 268 264 257 251 256 266 271 275 277 269 258 256 259 257 256 253 248 245 247 249 250 258 265 273 283 290 297 302 307 310 312 313 312 310 309 307 305 304 304 305 306 307 307 306 306 305 304 305 305 306 307 309 310 311 309 305
254 254 252 252 254 257 261 266 268 269 270 269 269 269 270 272 273 272 270 268 267 267 267 268 272 276 275 270 265 262 257 254 254 259 262 258 254 256 256 253 255 255 249 245 241 237 238 242 247 256 266 274 283 292 299 305 310 313 314 314 314 312 310 308 306 305 305 306 307 307 307 307 308 309 309 308 310 312 313 314 315 315 314 311 307
268 269 269 269 268 268 270 271 269 267 264 264 266 268 270 270 269 268 268 268 268 269 269 271 273 273 268 262 258 253 250 252 254 252 247 237 231 234 241 244 245 241 234 228 225 226 235 245 257 269 279 287 296 304 311 314 317 317 317 316 315 313 311 310 309 308 309 309 309 309 310 311 314 315 315 315 316 317 318 318 317 316 314 312 309
271 273 276 275 272 272 271 270 267 265 263 264 266 267 268 268 268 268 268 268 269 269 271 272 269 264 258 253 248 241 238 244 248 242 232 222 219 226 232 232 229 222 214 211 211 220 240 261 278 290 300 308 314 319 322 322 322 321 320 319 318 317 315 313 311 311 311 311 313 315 317 319 320 320 319 318 318 318 318 317 316 315 313 311 308
269 270 269 266 264 263 263 263 265 265 265 266 266 267 268 269 270 271 271 271 270 269 269 267 260 251 246 244 239 235 235 236 231 224 217 213 214 221 222 219 215 209 201 198 208 236 276 297 310 317 321 325 327 328 327 326 326 325 324 323 322 320 318 315 314 315 316 319 322 324 325 324 323 321 320 319 318 317 316 315 314 312 310 308 306
260 260 259 257 257 259 261 264 266 266 266 267 267 268 269 270 271 272 273 272 271 268 265 257 245 237 237 235 232 235 237 225 209 205 209 210 210 210 210 210 210 205 198 204 233 283 316 328 331 332 333 333 333 332 331 331 330 328 327 326 325 324 322 320 320 322 325 328 330 329 327 325 323 320 319 318 317 316 315 314 313 311 310 308 307
255 255 256 258 260 262 264 265 265 265 266 267 268 269 271 271 271 271 270 270 269 263 251 236 226 226 230 230 227 226 218 201 193 198 204 204 201 201 205 210 213 208 204 221 278 321 335 337 335 335 337 338 337 335 335 334 332 330 329 330 331 330 328 326 326 329 333 335 333 330 327 324 322 321 320 319 319 317 316 315 315 313 311 310 309
257 258 258 259 262 263 264 265 265 265 267 267 268 269 269 267 266 263 260 259 255 242 226 216 212 212 214 211 203 193 186 184 189 196 196 193 194 199 203 205 208 213 221 250 305 327 331 331 331 335 338 338 338 337 337 334 332 331 332 334 335 334 331 330 332 337 340 338 334 330 328 325 324 326 326 324 322 320 318 317 316 314 312 310 309
250 258 261 263 266 268 268 268 266 266 265 264 264 263 259 255 251 244 235 226 223 220 212 201 187 175 172 174 173 173 177 182 186 187 188 189 193 198 200 202 209 226 248 279 307 320 326 328 329 334 337 337 336 335 334 332 331 331 332 333 334 333 332 335 340 343 341 338 335 333 331 329 331 334 332 329 326 323 320 318 315 313 311 310 309
248 260 266 270 274 273 270 266 262 260 259 258 255 249 239 230 223 215 207 208 213 206 189 172 161 156 158 166 172 175 177 178 180 184 188 191 195 197 199 203 218 250 277 293 305 318 326 328 329 332 333 332 331 331 330 329 328 328 329 329 328 329 335 342 345 343 339 337 337 336 335 333 336 338 337 334 332 329 325 321 318 316 314 312 310
263 269 270 273 274 268 260 254 251 249 245 236 225 213 205 203 202 198 195 199 195 180 163 155 154 156 159 164 169 172 175 178 182 188 192 195 199 202 204 210 242 276 290 299 308 319 328 330 331 330 327 327 328 328 327 327 326 326 327 326 326 332 341 346 345 343 340 340 339 339 337 336 337 340 340 338 336 333 329 326 324 321 318 315 312
265 269 269 267 261 248 237 234 230 214 194 179 168 162 163 164 161 160 163 165 161 153 148 149 154 157 159 163 168 173 179 184 188 192 197 202 208 213 220 239 267 284 297 304 309 318 329 332 327 321 319 322 326 325 325 327 327 327 329 331 334 343 351 350 348 348 347 345 343 342 340 338 338 339 340 339 338 335 331 328 326 323 320 316 313
259 262 259 252 240 223 211 202 186 170 159 150 145 141 139 139 139 141 144 147 147 147 149 154 158 162 165 169 172 177 183 188 192 197 204 211 218 228 244 262 275 288 299 302 306 319 329 325 314 310 312 318 322 324 327 330 332 335 342 346 347 350 354 353 352 353 352 349 348 347 343 340 339 339 339 339 338 336 333 330 327 323 320 317 315
249 244 234 222 208 202 202 198 183 172 163 157 154 150 143 139 139 141 144 147 150 154 158 162 166 170 173 174 176 183 190 195 200 206 213 221 232 244 257 267 277 289 295 297 305 319 320 307 300 304 307 312 319 324 330 336 342 350 357 358 355 353 353 353 354 354 352 350 351 350 347 343 341 340 339 338 337 336 335 332 328 324 320 317 316
230 213 201 193 190 192 190 183 178 176 174 171 164 155 148 148 151 153 156 160 162 163 167 172 174 178 181 183 186 193 202 208 214 219 224 230 238 247 257 268 278 286 289 292 302 310 303 294 295 298 300 308 318 325 332 341 350 357 0 360 358 356 353 353 354 355 353 351 352 352 350 347 345 342 339 338 337 339 341 338 333 328 325 323 322
193 184 180 173 169 165 154 146 152 162 167 166 160 154 154 161 165 164 165 166 167 169 174 177 179 183 188 191 197 207 219 225 225 224 226 231 238 247 259 270 277 280 280 284 293 295 291 290 290 289 294 308 318 325 335 346 354 358 359 359 359 357 354 352 354 355 354 353 352 352 351 350 348 344 341 340 340 343 345 342 338 334 332 331 330
170 168 161 154 152 150 141 128 126 138 148 155 161 166 167 166 165 167 169 171 175 180 183 186 191 197 204 209 215 221 228 231 228 225 227 233 243 255 264 270 272 270 269 274 283 286 287 286 282 282 293 308 316 324 338 348 353 356 358 359 359 358 354 351 351 352 353 354 353 351 351 350 349 347 345 342 342 345 348 347 343 338 336 336 336
163 159 152 151 152 149 139 129 127 130 134 140 153 168 173 170 169 173 177 180 185 190 193 200 212 220 222 223 221 220 222 225 225 227 232 242 254 264 268 268 265 260 259 268 278 284 286 285 281 283 294 303 308 319 338 347 351 354 356 357 358 357 354 350 348 348 350 353 354 352 350 349 348 348 347 344 342 345 349 350 347 342 339 340 340
158 153 154 157 156 149 143 140 138 133 127 123 129 139 147 150 155 164 171 175 181 187 196 207 218 222 223 222 217 215 217 222 226 234 244 254 261 264 263 261 257 254 257 269 281 287 288 287 287 292 297 297 300 315 335 343 347 350 353 355 356 356 354 351 348 347 349 353 354 353 351 348 346 347 348 345 342 342 347 352 353 348 342 340 337
153 154 161 165 161 154 144 138 142 144 138 128 122 121 121 130 147 162 170 176 182 191 199 207 212 216 220 222 221 221 225 230 238 246 252 254 254 254 255 256 253 251 257 270 283 291 293 294 298 305 304 295 295 314 331 337 341 345 350 353 355 355 354 353 350 349 351 354 354 353 351 347 344 345 348 347 343 341 345 353 357 354 348 342 335
158 159 163 166 166 161 144 133 139 143 140 135 134 138 148 163 173 177 182 189 195 200 204 211 217 223 228 230 231 233 237 241 244 246 247 245 245 248 253 254 250 248 257 272 286 295 299 303 313 319 312 294 293 314 328 333 336 342 348 352 354 354 353 353 352 351 353 355 354 353 351 348 344 344 347 347 344 342 344 352 358 359 357 352 344
165 163 163 165 168 166 151 143 143 144 144 149 159 171 183 190 191 193 198 203 205 206 212 219 227 235 238 238 237 239 242 243 243 242 243 246 247 247 248 249 247 247 257 273 288 299 306 313 321 324 316 300 305 320 329 332 336 342 348 351 352 353 353 353 353 353 353 354 355 354 353 349 347 346 347 348 346 343 343 349 358 3 5 5 2
166 166 165 164 165 169 163 154 153 156 165 180 188 193 197 199 199 201 202 205 208 214 224 234 242 250 255 256 256 256 255 250 248 250 256 260 257 251 248 248 245 246 256 275 294 307 315 322 325 324 317 312 319 327 332 335 341 346 349 349 350 351 352 353 355 355 355 355 356 356 355 353 351 349 349 349 348 346 344 348 359 8 14 18 19
167 170 172 170 173 184 200 200 191 189 194 200 205 208 208 207 205 204 206 212 224 236 247 256 263 269 275 277 277 274 267 261 261 265 269 267 261 255 251 246 241 244 258 282 298 307 316 322 324 324 319 319 325 331 335 341 346 348 348 347 347 348 350 353 355 357 357 358 358 358 357 357 356 354 352 351 350 349 348 351 1 12 20 26 27
Height
1510 1512 1514 1516 1518 1520 1521 1524 1525 1526 1527 1529 1530 1531 1533 1534 1535 1536 1537 1537 1537 1537 1537 1537 1538 1539 1539 1540 1540 1540 1540 1540 1540 1540 1541 1541 1542 1542 1543 1543 1543 1542 1542 1542 1542 1542 1542 1542 1542 1542 1542 1542 1542 1542 1542 1542 1542 1542 1541 1541 1541 1541 1541 1541 1541 1541 1541 1541 1540 1539 1539 1538 1537 1537 1536 1536 1536 1536 1535 1534 1534 1533 1532 1532 1531
1509 1511 1513 1516 1519 1521 1522 1524 1525 1526 1526 1528 1529 1531 1532 1533 1534 1534 1535 1536 1536 1537 1537 1538 1538 1539 1540 1540 1541 1541 1541 1541 1541 1541 1541 1541 1542 1542 1542 1542 1542 1542 1542 1542 1542 1542 1541 1541 1542 1542 1542 1542 1542 1542 1542 1542 1542 1541 1541 1541 1541 1541 1541 1541 1540 1540 1540 1540 1540 1539 1538 1537 1536 1536 1535 1535 1534 1534 1534 1533 1532 1532 1531 1530 1529
1509 1511 1513 1516 1519 1521 1522 1524 1526 1526 1526 1527 1529 1530 1531 1533 1533 1533 1534 1534 1535 1536 1536 1537 1538 1539 1539 1540 1540 1541 1541 1541 1541 1541 1541 1541 1541 1542 1542 1542 1542 1542 1542 1542 1542 1542 1541 1541 1541 1541 1541 1541 1542 1541 1541 1541 1541 1541 1541 1541 1540 1540 1540 1540 1540 1539 1539 1539 1539 1538 1537 1536 1536 1535 1534 1534 1533 1533 1532 1531 1531 1530 1529 1529 1528
1509 1511 1512 1514 1516 1518 1519 1521 1523 1524 1524 1525 1527 1529 1530 1531 1532 1533 1533 1534 1534 1535 1535 1536 1537 1538 1539 1539 1540 1540 1540 1541 1541 1541 1541 1540 1541 1541 1541 1541 1542 1542 1542 1542 1542 1542 1541 1541 1541 1541 1541 1541 1541 1541 1541 1541 1541 1541 1541 1540 1540 1540 1540 1539 1539 1538 1538 1537 1537 1537 1536 1535 1534 1533 1533 1533 1532 1531 1531 1530 1529 1529 1528 1527 1526
1509 1510 1512 1513 1515 1517 1518 1519 1521 1522 1523 1525 1526 1527 1528 1529 1530 1531 1532 1533 1533 1534 1535 1535 1535 1536 1537 1538 1538 1539 1539 1540 1540 1540 1540 1540 1540 1540 1540 1540 1541 1541 1541 1541 1541 1541 1541 1541 1541 1541 1541 1540 1541 1541 1541 1540 1540 1540 1540 1540 1540 1540 1539 1539 1539 1538 1537 1536 1536 1536 1535 1534 1533 1532 1531 1530 1530 1530 1529 1528 1527 1526 1526 1525 1524
1509 1511 1512 1513 1515 1517 1518 1520 1521 1522 1524 1525 1525 1526 1527 1527 1528 1530 1531 1531 1532 1532 1533 1534 1534 1535 1535 1536 1537 1537 1537 1538 1538 1538 1539 1539 1538 1539 1539 1539 1539 1539 1540 1540 1540 1540 1540 1540 1540 1540 1540 1540 1540 1540 1540 1540 1540 1540 1539 1539 1539 1539 1539 1538 1538 1537 1537 1536 1535 1534 1534 1533 1532 1531 1530 1528 1527 1526 1526 1525 1525 1524 1523 1522 1522
1510 1511 1512 1513 1515 1517 1518 1519 1520 1522 1524 1524 1525 1526 1526 1526 1527 1528 1529 1530 1530 1531 1531 1532 1533 1533 1534 1534 1535 1535 1535 1535 1536 1536 1536 1536 1536 1536 1537 1537 1538 1538 1538 1538 1539 1539 1539 1539 1539 1539 1539 1540 1540 1540 1540 1539 1539 1539 1539 1538 1538 1538 1538 1537 1537 1536 1535 1535 1534 1533 1532 1532 1530 1529 1528 1527 1526 1524 1523 1522 1521 1521 1520 1519 1518
1509 1510 1511 1513 1514 1515 1517 1518 1519 1521 1522 1523 1524 1525 1525 1525 1526 1526 1527 1528 1529 1529 1529 1530 1531 1532 1532 1532 1533 1533 1533 1533 1533 1534 1534 1534 1534 1534 1535 1535 1536 1536 1536 1537 1537 1537 1537 1537 1537 1537 1538 1538 1538 1538 1538 1538 1538 1538 1537 1537 1537 1536 1536 1535 1535 1534 1533 1533 1532 1531 1531 1530 1528 1527 1526 1525 1523 1522 1520 1518 1518 1517 1516 1516 1515
1509 1510 1511 1512 1513 1514 1515 1517 1519 1521 1522 1522 1523 1524 1524 1524 1525 1525 1526 1527 1527 1527 1527 1528 1528 1528 1529 1529 1530 1531 1531 1531 1531 1531 1531 1532 1532 1532 1532 1532 1533 1534 1534 1535 1535 1535 1535 1535 1535 1535 1536 1536 1537 1537 1537 1536 1536 1536 1536 1535 1535 1534 1534 1533 1533 1532 1532 1531 1530 1529 1528 1527 1526 1524 1523 1522 1520 1519 1518 1516 1514 1514 1513 1512 1512
1510 1511 1511 1512 1513 1514 1515 1517 1520 1522 1522 1522 1523 1524 1523 1523 1523 1524 1525 1525 1524 1524 1525 1527 1527 1527 1528 1528 1528 1528 1528 1528 1528 1528 1528 1529 1529 1529 1529 1530 1531 1532 1532 1532 1532 1533 1533 1533 1533 1533 1534 1534 1535 1535 1535 1535 1534 1534 1534 1534 1533 1533 1532 1531 1531 1530 1530 1529 1528 1527 1526 1525 1524 1522 1520 1519 1518 1517 1516 1514 1512 1510 1509 1508 1508
1511 1512 1513 1514 1514 1515 1517 1519 1520 1522 1522 1523 1523 1523 1523 1522 1522 1522 1522 1522 1522 1523 1524 1526 1527 1527 1527 1527 1526 1526 1526 1526 1526 1526 1526 1526 1526 1527 1527 1528 1528 1529 1529 1529 1530 1530 1530 1530 1531 1531 1531 1532 1532 1533 1533 1533 1532 1532 1532 1532 1531 1531 1530 1529 1528 1528 1528 1527 1526 1524 1523 1522 1521 1520 1518 1517 1516 1514 1513 1511 1509 1508 1506 1504 1503
1511 1512 1513 1514 1515 1517 1518 1519 1520 1520 1521 1521 1522 1522 1522 1521 1521 1522 1521 1522 1522 1523 1524 1525 1526 1526 1526 1526 1525 1525 1524 1525 1525 1525 1525 1525 1525 1525 1526 1526 1526 1526 1526 1526 1526 1527 1527 1527 1528 1528 1529 1529 1530 1530 1530 1531 1531 1530 1530 1530 1529 1529 1528 1527 1527 1526 1525 1524 1523 1522 1520 1519 1518 1517 1515 1514 1513 1512 1510 1509 1507 1505 1504 1502 1500
1510 1511 1512 1513 1514 1515 1516 1517 1518 1518 1519 1519 1520 1520 1520 1520 1521 1521 1521 1522 1522 1523 1524 1524 1524 1525 1525 1524 1524 1524 1524 1524 1524 1524 1524 1524 1524 1524 1524 1525 1524 1524 1524 1524 1524 1524 1524 1524 1525 1525 1526 1527 1528 1528 1529 1529 1529 1528 1528 1528 1528 1527 1526 1526 1525 1524 1523 1522 1521 1520 1518 1516 1515 1514 1513 1511 1509 1508 1507 1505 1504 1502 1500 1499 1497
1509 1510 1511 1512 1513 1514 1515 1515 1516 1517 1517 1518 1518 1518 1519 1519 1519 1520 1520 1521 1521 1522 1522 1523 1523 1523 1523 1523 1523 1522 1522 1523 1523 1523 1523 1523 1523 1523 1523 1523 1523 1522 1522 1522 1522 1522 1522 1522 1522 1523 1524 1525 1526 1526 1526 1526 1526 1526 1526 1526 1525 1525 1525 1524 1523 1522 1521 1519 1518 1517 1515 1513 1512 1511 1510 1508 1506 1504 1503 1501 1500 1499 1497 1496 1494
1509 1510 1510 1511 1512 1513 1514 1515 1515 1516 1516 1517 1517 1517 1517 1518 1518 1519 1519 1519 1520 1520 1521 1521 1521 1521 1521 1521 1521 1521 1521 1521 1521 1521 1521 1521 1521 1521 1521 1521 1520 1520 1520 1519 1519 1519 1519 1519 1520 1521 1522 1523 1523 1524 1524 1524 1524 1524 1524 1524 1524 1523 1522 1522 1521 1519 1518 1517 1515 1514 1513 1511 1509 1508 1507 1505 1503 1501 1499 1497 1496 1494 1492 1491 1490
1509 1509 1510 1511 1511 1512 1513 1513 1514 1515 1515 1516 1516 1516 1516 1517 1517 1518 1518 1518 1519 1519 1519 1519 1519 1519 1519 1519 1519 1519 1519 1519 1519 1519 1519 1519 1519 1519 1519 1518 1518 1518 1517 1517 1517 1517 1517 1517 1518 1519 1520 1521 1522 1522 1522 1522 1522 1522 1522 1522 1522 1521 1520 1519 1518 1517 1515 1514 1512 1511 1510 1508 1507 1505 1504 1503 1501 1499 1496 1494 1494 1492 1488 1486 1485
1508 1509 1510 1510 1511 1511 1511 1512 1513 1514 1514 1515 1515 1515 1516 1516 1516 1516 1517 1517 1517 1518 1518 1518 1518 1518 1518 1518 1517 1517 1517 1517 1518 1518 1518 1518 1517 1517 1517 1516 1516 1516 1516 1516 1516 1516 1516 1517 1518 1519 1519 1520 1520 1520 1520 1520 1520 1520 1520 1520 1520 1519 1518 1516 1515 1514 1512 1511 1509 1508 1506 1505 1504 1503 1501 1500 1499 1497 1494 1492 1491 1489 1486 1483 1481
1509 1509 1510 1510 1511 1511 1511 1511 1512 1512 1513 1514 1514 1514 1515 1515 1515 1515 1516 1516 1516 1516 1516 1516 1516 1516 1516 1516 1516 1516 1516 1516 1516 1516 1516 1516 1516 1515 1515 1515 1514 1514 1514 1514 1515 1515 1516 1516 1517 1518 1518 1518 1519 1519 1519 1519 1519 1518 1518 1518 1517 1516 1515 1514 1513 1511 1510 1508 1507 1505 1504 1503 1501 1500 1499 1498 1496 1495 1492 1489 1488 1486 1484 1481 1479
1508 1509 1509 1510 1510 1510 1510 1510 1511 1511 1512 1512 1513 1513 1513 1514 1514 1514 1514 1515 1515 1515 1515 1515 1515 1515 1515 1515 1515 1514 1514 1514 1514 1514 1514 1514 1514 1514 1513 1513 1513 1513 1514 1514 1514 1515 1515 1516 1516 1517 1517 1517 1517 1517 1517 1517 1517 1516 1516 1515 1514 1513 1512 1511 1510 1508 1507 1505 1504 1502 1501 1500 1498 1497 1496 1495 1494 1492 1490 1488 1486 1484 1481 1479 1478
1508 1508 1509 1509 1509 1509 1509 1509 1510 1510 1510 1511 1511 1512 1512 1512 1513 1513 1513 1513 1513 1514 1514 1514 1514 1514 1514 1514 1513 1513 1513 1513 1513 1512 1512 1512 1512 1512 1512 1512 1513 1513 1513 1513 1514 1514 1514 1515 1515 1515 1515 1516 1515 1515 1515 1515 1515 1514 1513 1513 1512 1510 1509 1508 1506 1504 1503 1501 1500 1498 1497 1496 1495 1493 1492 1491 1490 1489 1488 1486 1484 1482 1480 1477 1476
1507 1507 1507 1508 1508 1508 1508 1508 1508 1508 1509 1510 1510 1511 1511 1511 1511 1512 1512 1512 1512 1512 1513 1513 1513 1513 1513 1512 1512 1512 1512 1512 1511 1511 1511 1511 1511 1511 1511 1511 1511 1512 1512 1513 1513 1513 1513 1513 1513 1513 1513 1513 1514 1513 1513 1513 1512 1512 1511 1510 1509 1507 1506 1504 1502 1501 1499 1497 1496 1495 1493 1492 1491 1490 1489 1488 1487 1486 1485 1483 1482 1480 1478 1476 1474
1505 1505 1505 1505 1505 1505 1506 1506 1506 1507 1508 1508 1509 1509 1510 1510 1510 1510 1510 1510 1511 1511 1511 1511 1511 1512 1511 1511 1511 1511 1511 1511 1510 1510 1510 1510 1510 1510 1510 1510 1510 1510 1511 1511 1511 1512 1512 1511 1511 1511 1511 1511 1511 1511 1510 1510 1509 1509 1508 1507 1505 1504 1502 1501 1499 1498 1496 1495 1493 1492 1490 1489 1488 1487 1486 1485 1484 1482 1481 1479 1478 1477 1475 1473 1471
1503 1503 1503 1504 1504 1504 1504 1504 1504 1505 1506 1506 1507 1507 1508 1508 1508 1508 1508 1509 1509 1509 1509 1510 1510 1510 1510 1510 1510 1510 1510 1509 1509 1509 1509 1509 1509 1509 1509 1509 1509 1509 1509 1509 1509 1509 1510 1509 1509 1509 1509 1509 1509 1508 1508 1507 1507 1506 1505 1504 1502 1501 1500 1498 1497 1495 1493 1492 1490 1488 1487 1486 1485 1483 1482 1481 1480 1478 1477 1475 1474 1472 1470 1469 1468
1500 1501 1501 1501 1501 1501 1501 1502 1502 1503 1504 1504 1505 1505 1506 1506 1506 1506 1507 1507 1507 1507 1507 1508 1508 1508 1508 1508 1508 1508 1508 1508 1508 1508 1508 1508 1508 1508 1508 1508 1507 1507 1507 1507 1507 1507 1507 1508 1508 1508 1508 1507 1507 1506 1506 1505 1504 1503 1502 1501 1500 1498 1497 1496 1494 1492 1490 1489 1487 1486 1484 1484 1482 1481 1479 1478 1476 1474 1473 1471 1469 1468 1466 1465 1464
1498 1498 1498 1499 1499 1499 1499 1499 1500 1500 1501 1502 1502 1503 1503 1503 1504 1504 1504 1505 1505 1505 1506 1506 1506 1506 1506 1506 1506 1506 1506 1507 1507 1507 1507 1507 1507 1507 1507 1506 1506 1505 1505 1505 1505 1505 1506 1506 1506 1506 1506 1505 1505 1504 1504 1503 1502 1501 1500 1499 1497 1496 1495 1493 1491 1489 1488 1486 1485 1483 1482 1481 1480 1478 1476 1474 1472 1471 1469 1467 1466 1465 1463 1461 1460
1495 1495 1495 1496 1496 1496 1496 1497 1497 1497 1498 1498 1499 1500 1500 1501 1501 1501 1502 1502 1503 1503 1503 1504 1504 1504 1504 1504 1504 1504 1504 1504 1505 1505 1505 1505 1505 1505 1505 1504 1504 1504 1504 1504 1504 1504 1504 1504 1504 1504 1504 1503 1503 1502 1502 1501 1500 1499 1498 1497 1495 1494 1492 1490 1489 1487 1485 1484 1482 1481 1479 1478 1476 1475 1473 1471 1469 1468 1466 1463 1461 1461 1460 1458 1455
1492 1492 1493 1493 1493 1494 1494 1494 1494 1495 1495 1495 1496 1497 1497 1497 1498 1498 1498 1499 1499 1500 1500 1501 1501 1501 1502 1502 1502 1501 1502 1502 1502 1502 1502 1503 1503 1503 1502 1502 1502 1503 1503 1503 1503 1502 1502 1502 1502 1502 1502 1502 1501 1501 1500 1499 1498 1497 1496 1495 1493 1492 1490 1489 1487 1485 1483 1481 1480 1478 1477 1475 1473 1472 1470 1468 1466 1465 1463 1460 1458 1456 1455 1453 1450
1489 1490 1490 1490 1490 1491 1491 1491 1492 1492 1492 1492 1493 1493 1493 1494 1494 1494 1495 1495 1496 1496 1497 1497 1498 1498 1499 1499 1499 1499 1499 1499 1500 1500 1500 1501 1501 1501 1501 1501 1501 1501 1502 1501 1501 1501 1501 1501 1501 1501 1501 1500 1500 1499 1499 1498 1497 1496 1494 1493 1492 1491 1489 1487 1486 1484 1482 1480 1478 1476 1474 1472 1470 1469 1467 1465 1463 1462 1460 1457 1455 1453 1451 1449 1447
1487 1487 1487 1487 1487 1488 1488 1488 1489 1489 1489 1489 1489 1489 1490 1490 1490 1491 1491 1492 1492 1493 1493 1494 1494 1495 1495 1496 1496 1496 1496 1497 1498 1498 1499 1499 1499 1499 1499 1500 1500 1500 1500 1500 1500 1500 1500 1500 1500 1500 1500 1499 1499 1498 1497 1496 1495 1494 1493 1492 1491 1489 1488 1486 1484 1482 1480 1478 1476 1473 1471 1469 1467 1465 1463 1461 1459 1458 1456 1454 1452 1450 1448 1447 1444
1483 1483 1484 1484 1484 1484 1484 1484 1485 1485 1485 1485 1486 1486 1486 1486 1487 1487 1488 1488 1489 1489 1489 1490 1491 1491 1492 1492 1493 1493 1494 1495 1495 1496 1497 1497 1498 1498 1499 1499 1499 1499 1499 1500 1500 1500 1500 1500 1500 1499 1499 1498 1497 1496 1496 1495 1494 1493 1491 1490 1489 1487 1485 1484 1481 1479 1478 1476 1473 1471 1469 1466 1464 1462 1460 1457 1455 1454 1453 1451 1450 1448 1446 1444 1442
1479 1480 1480 1480 1480 1480 1480 1481 1481 1481 1481 1482 1482 1482 1482 1482 1483 1483 1484 1484 1485 1485 1485 1486 1487 1487 1488 1489 1489 1490 1491 1492 1493 1494 1495 1496 1497 1497 1498 1498 1498 1499 1499 1499 1499 1499 1499 1499 1498 1498 1497 1497 1496 1495 1494 1493 1492 1491 1489 1488 1487 1485 1483 1481 1479 1477 1475 1473 1471 1468 1466 1463 1461 1459 1457 1455 1453 1452 1450 1449 1447 1446 1444 1442 1440
1475 1476 1476 1476 1477 1477 1477 1477 1478 1478 1478 1478 1478 1478 1478 1478 1479 1479 1479 1480 1480 1481 1481 1482 1483 1484 1485 1486 1487 1488 1489 1490 1491 1492 1493 1494 1495 1496 1497 1497 1498 1498 1499 1499 1499 1499 1498 1498 1497 1497 1496 1495 1494 1493 1492 1491 1490 1489 1487 1486 1484 1483 1481 1479 1477 1475 1473 1470 1468 1466 1463 1461 1459 1457 1455 1453 1451 1449 1448 1446 1445 1443 1441 1439 1437
1472 1473 1473 1473 1473 1473 1473 1474 1474 1474 1474 1474 1474 1474 1474 1474 1474 1474 1474 1474 1475 1476 1477 1478 1479 1480 1481 1483 1484 1485 1486 1487 1489 1490 1492 1493 1494 1495 1496 1497 1497 1498 1498 1498 1498 1498 1497 1497 1496 1496 1495 1494 1493 1492 1491 1490 1488 1487 1486 1484 1483 1481 1479 1477 1475 1473 1471 1468 1466 1464 1462 1460 1458 1456 1454 1452 1450 1447 1445 1443 1442 1440 1438 1436 1434
1469 1469 1470 1470 1470 1470 1470 1470 1470 1470 1470 1470 1470 1469 1469 1469 1469 1469 1469 1470 1470 1471 1472 1474 1475 1477 1479 1480 1482 1483 1484 1486 1488 1490 1491 1492 1493 1495 1495 1496 1496 1497 1497 1497 1497 1497 1496 1496 1495 1494 1494 1493 1492 1491 1490 1488 1487 1486 1485 1483 1481 1479 1477 1475 1473 1471 1469 1467 1465 1463 1461 1459 1456 1454 1451 1449 1447 1445 1443 1441 1439 1437 1435 1433 1431
1466 1466 1466 1467 1467 1467 1467 1467 1467 1467 1466 1466 1465 1465 1465 1465 1465 1465 1466 1467 1467 1468 1470 1471 1473 1475 1477 1478 1480 1482 1484 1486 1487 1489 1490 1491 1493 1494 1495 1495 1496 1496 1496 1496 1496 1496 1495 1495 1494 1494 1493 1492 1491 1490 1489 1487 1486 1485 1483 1482 1480 1478 1476 1474 1472 1470 1468 1466 1464 1461 1459 1457 1455 1452 1449 1447 1445 1442 1440 1438 1437 1435 1433 1431 1429
1463 1464 1464 1464 1464 1464 1464 1463 1463 1463 1462 1462 1462 1461 1461 1462 1462 1463 1464 1465 1466 1467 1469 1470 1472 1474 1476 1478 1480 1482 1484 1485 1487 1488 1490 1491 1492 1494 1494 1495 1495 1495 1496 1496 1495 1495 1495 1494 1493 1493 1492 1491 1490 1489 1488 1487 1485 1484 1483 1481 1479 1477 1475 1473 1470 1468 1466 1464 1462 1460 1457 1455 1453 1450 1447 1445 1443 1440 1438 1436 1434 1432 1430 1429 1427
1460 1461 1461 1461 1461 1461 1461 1460 1460 1460 1459 1459 1458 1459 1459 1459 1460 1461 1462 1463 1465 1466 1468 1469 1471 1473 1475 1478 1480 1482 1483 1485 1486 1488 1489 1491 1492 1493 1494 1494 1495 1495 1495 1495 1495 1494 1494 1493 1493 1492 1491 1490 1489 1488 1487 1486 1485 1483 1482 1480 1478 1476 1474 1472 1470 1468 1465 1463 1461 1458 1455 1453 1450 1448 1445 1443 1440 1438 1436 1434 1432 1430 1428 1426 1424
1458 1459 1459 1459 1459 1458 1458 1458 1458 1457 1457 1457 1457 1457 1457 1458 1459 1460 1461 1463 1465 1466 1468 1470 1472 1473 1475 1478 1480 1482 1483 1485 1486 1488 1489 1490 1492 1492 1493 1493 1494 1494 1494 1494 1494 1493 1493 1492 1491 1491 1490 1489 1488 1487 1486 1485 1484 1482 1481 1479 1477 1476 1473 1471 1469 1466 1464 1461 1459 1456 1454 1451 1448 1446 1444 1441 1438 1436 1434 1432 1430 1427 1425 1424 1422
1457 1457 1457 1457 1457 1457 1457 1457 1457 1457 1456 1456 1456 1456 1457 1457 1458 1459 1461 1463 1466 1468 1470 1472 1474 1475 1477 1479 1480 1482 1484 1485 1486 1488 1489 1490 1491 1492 1492 1493 1493 1493 1493 1493 1493 1492 1492 1491 1490 1490 1489 1489 1488 1487 1486 1484 1483 1482 1480 1478 1476 1474 1472 1469 1467 1465 1462 1460 1457 1455 1452 1450 1447 1444 1442 1440 1437 1434 1432 1430 1428 1426 1423 1421 1420
1456 1456 1456 1456 1456 1456 1456 1457 1457 1457 1457 1457 1458 1458 1458 1459 1460 1461 1463 1465 1468 1470 1472 1473 1475 1477 1479 1480 1481 1483 1484 1485 1486 1488 1489 1489 1490 1491 1491 1492 1492 1492 1492 1492 1492 1491 1491 1490 1490 1489 1489 1488 1487 1486 1485 1484 1482 1481 1479 1477 1475 1472 1470 1468 1466 1463 1461 1458 1456 1453 1451 1448 1445 1443 1440 1438 1435 1433 1431 1428 1426 1424 1422 1419 1418
1455 1455 1455 1455 1455 1456 1456 1457 1458 1458 1459 1459 1460 1460 1461 1462 1463 1465 1466 1468 1470 1472 1473 1475 1476 1478 1480 1481 1482 1484 1485 1486 1487 1487 1488 1489 1490 1490 1491 1491 1491 1491 1491 1491 1491 1490 1490 1490 1489 1489 1488 1487 1486 1485 1484 1483 1482 1480 1478 1476 1474 1471 1469 1467 1465 1462 1460 1457 1454 1452 1449 1447 1444 1441 1438 1436 1434 1432 1429 1427 1424 1422 1420 1418 1416
1454 1454 1454 1455 1455 1456 1457 1457 1458 1459 1460 1461 1462 1462 1463 1465 1466 1467 1469 1470 1472 1473 1474 1476 1477 1479 1480 1482 1483 1484 1485 1486 1487 1487 1488 1488 1489 1490 1490 1490 1490 1490 1490 1490 1490 1490 1489 1489 1488 1487 1487 1486 1485 1485 1484 1483 1481 1479 1477 1475 1473 1471 1468 1466 1464 1461 1458 1456 1453 1451 1448 1445 1443 1440 1437 1435 1433 1430 1428 1425 1423 1421 1419 1417 1415
1453 1454 1454 1455 1456 1457 1458 1458 1459 1460 1461 1462 1463 1464 1465 1466 1468 1469 1470 1472 1473 1474 1476 1477 1478 1480 1481 1482 1483 1484 1484 1485 1486 1487 1487 1488 1488 1489 1489 1489 1489 1489 1489 1489 1489 1489 1488 1487 1487 1486 1486 1485 1485 1484 1483 1482 1480 1479 1477 1475 1472 1470 1468 1465 1463 1460 1457 1454 1452 1449 1447 1444 1441 1439 1436 1434 1431 1429 1426 1424 1422 1420 1417 1415 1414
1453 1454 1455 1456 1457 1458 1459 1460 1460 1461 1462 1463 1464 1465 1466 1468 1469 1470 1472 1473 1474 1475 1476 1478 1479 1480 1481 1481 1482 1483 1484 1485 1485 1486 1487 1487 1488 1488 1488 1488 1488 1488 1488 1488 1488 1488 1487 1486 1486 1485 1485 1485 1484 1484 1483 1481 1480 1478 1476 1474 1472 1469 1467 1465 1462 1459 1457 1454 1451 1448 1445 1443 1440 1438 1435 1432 1430 1428 1425 1423 1421 1418 1416 1414 1413
1454 1455 1456 1457 1458 1459 1460 1461 1462 1462 1463 1464 1465 1466 1467 1468 1469 1471 1472 1473 1474 1475 1476 1477 1478 1479 1480 1481 1482 1482 1483 1484 1485 1485 1486 1486 1487 1487 1487 1487 1487 1487 1487 1487 1487 1486 1486 1486 1485 1485 1484 1484 1484 1483 1482 1481 1480 1478 1476 1474 1471 1469 1466 1464 1461 1459 1456 1453 1450 1447 1444 1442 1439 1437 1434 1431 1429 1427 1424 1422 1420 1418 1416 1414 1413
1455 1456 1457 1459 1460 1461 1462 1462 1463 1464 1465 1465 1466 1467 1468 1468 1469 1471 1472 1473 1474 1475 1476 1477 1478 1479 1480 1481 1481 1482 1483 1484 1484 1485 1485 1486 1486 1486 1486 1486 1486 1486 1486 1486 1486 1486 1485 1485 1484 1484 1484 1484 1483 1482 1481 1480 1479 1478 1476 1473 1471 1468 1466 1464 1461 1459 1456 1453 1450 1447 1444 1441 1439 1436 1433 1431 1428 1426 1424 1422 1420 1418 1416 1414 1412
1456 1458 1459 1460 1461 1462 1463 1463 1464 1465 1466 1466 1467 1468 1469 1470 1471 1472 1473 1474 1475 1476 1477 1478 1479 1480 1480 1481 1482 1482 1483 1483 1484 1484 1484 1485 1485 1485 1485 1485 1485 1485 1485 1485 1485 1485 1484 1484 1484 1484 1483 1483 1483 1482 1481 1480 1479 1477 1475 1473 1471 1469 1466 1464 1461 1458 1456 1453 1450 1447 1444 1441 1438 1435 1433 1430 1428 1426 1424 1422 1420 1418 1416 1414 1412
1458 1459 1460 1461 1463 1464 1464 1465 1465 1466 1467 1468 1468 1469 1470 1471 1472 1473 1474 1475 1476 1477 1478 1479 1479 1480 1481 1481 1481 1482 1482 1483 1483 1483 1483 1484 1484 1484 1484 1484 1484 1485 1485 1485 1485 1484 1484 1484 1484 1483 1483 1482 1482 1481 1480 1479 1478 1477 1475 1473 1471 1468 1466 1464 1461 1458 1455 1453 1450 1447 1444 1441 1438 1435 1432 1430 1427 1425 1423 1421 1419 1418 1416 1414 1413
1459 1460 1462 1463 1464 1465 1465 1466 1467 1467 1468 1469 1470 1471 1471 1472 1473 1474 1475 1476 1477 1478 1478 1479 1480 1480 1480 1481 1481 1481 1481 1482 1482 1482 1483 1483 1483 1483 1483 1483 1484 1484 1484 1484 1484 1484 1484 1483 1483 1482 1482 1481 1481 1480 1479 1478 1477 1476 1474 1472 1470 1468 1466 1464 1461 1458 1455 1453 1450 1447 1444 1441 1438 1435 1432 1430 1427 1425 1423 1421 1419 1418 1416 1414 1413
1461 1462 1463 1465 1465 1466 1467 1467 1468 1469 1469 1470 1471 1471 1472 1473 1474 1475 1476 1477 1477 1478 1479 1479 1479 1480 1480 1480 1480 1480 1481 1481 1481 1481 1482 1482 1482 1482 1482 1482 1482 1483 1483 1483 1483 1483 1483 1482 1482 1482 1481 1480 1480 1479 1478 1477 1476 1474 1473 1471 1469 1468 1466 1463 1461 1458 1455 1452 1450 1447 1444 1441 1438 1435 1432 1430 1428 1425 1423 1421 1420 1418 1416 1415 1414
1462 1464 1465 1466 1466 1467 1468 1468 1469 1470 1470 1471 1472 1473 1473 1474 1475 1475 1476 1477 1478 1478 1478 1479 1479 1479 1479 1479 1479 1479 1479 1480 1480 1480 1480 1481 1481 1481 1481 1481 1482 1482 1482 1482 1482 1482 1482 1482 1481 1481 1480 1480 1479 1478 1477 1476 1475 1473 1471 1470 1468 1467 1465 1463 1461 1458 1455 1452 1450 1447 1444 1441 1438 1435 1432 1430 1428 1425 1424 1422 1420 1418 1417 1415 1414